FENGYUN 1C DEB

Satellite information

Favourite Embed

Satellite Type and Status

DEBRISIN ORBIT

Key statistics

Satellite FENGYUN 1C DEB at a glance.

Uptime

9656

Days in orbit

Revolutions

≈ 14.3

Per day

Orbit

SSO

Sun Synchronous Orbit

Inclination

98.9

Latest

Satellite identification and parameters

Extended collection of information and parameters for FENGYUN 1C DEB.

Object identification

Identified? True

Debris? True

Object name: FENGYUN 1C DEB

International designator: 1999-025CSZ

Object number (NORAD): 32155

Object ID (CCSDS): 32155

Country: PEOPLES REPUBLIC OF CHINA (PRC)

Current information (Y/N): Y

RCS size: SMALL

Orbital parameters

Period: 100.512 minutes

Inclination: 98.9447 deg

SMA: 7160.986 km

Apoapsis: 834.302 km

Periapsis: 731.401 km

RAAN: 215.7604 deg

Eccentricy: 0.00718483

Argument of periapsis: 51.6154 deg

Mean anomaly: 309.1454 deg

Mean motion: 14.32661211 rev/day

Mean motion (dot): 0.00002014 rev/day2

B* drag term: 0.00073640839 1/REarth

Two-line elements (TLE)

Creation date: Oct. 15, 2025, 6:23 p.m.

Reference frame: TEME

Reference center: EARTH

Epoch: Oct. 15, 2025, 1:24 a.m. UTC

TLE line 0: 0 FENGYUN 1C DEB

TLE line 1: 1 32155U 99025CSZ 25288.05869329 .00002014 00000-0 73641-3 0 9999

TLE line 2: 2 32155 98.9447 215.7604 0071848 51.6154 309.1454 14.32661211693825

Live tracking on map

Real-time ground track for satellite FENGYUN 1C DEB.

In-orbit conjunctions

A list of the most updated potential collisions computed for object FENGYUN 1C DEB.

Target Orbit TCA Probability of collision Miss distance Type
CZ-6A R/B DEB LEO 2025-07-19 03:10:57 0.0001948949 112.0 (m) DEBRIS
RIGIDSPHERE 2 (LCS 4) LEO 2025-04-28 07:15:43 0.0002351456 518.0 (m) PAYLOAD
IRIDIUM 33 DEB LEO 2025-02-28 20:13:50 0.0001448045 381.0 (m) DEBRIS
CZ-6A DEB LEO 2024-12-15 20:43:10 0.0001658361 729.0 (m) DEBRIS
METEOR 1-24 LEO 2024-11-19 18:54:40 0.0006761339 180.0 (m) PAYLOAD

Associated space launch

Chinese polar orbiting meteorological satellite

FENGYUN 1C DEB was lifted into orbit during the mission ‘Long March 4B | Feng Yun 1C’, on board a Long March 4B space rocket.

The launch took place on May 10, 1999, 1:33 a.m. from Launch Complex 7.

For more information about the launch, click the button.

Launch to space Long March 4B | Feng Yun 1C
Long March 4B | Feng Yun 1C

Agency: N/A

Status: Launch Successful

Launch date: May 10, 1999, 1:33 a.m. UTC

Rocket: Long March 4B

Launch pad: Launch Complex 7

Location: Taiyuan Satellite Launch Center, People's Republic of China

...

Latest news about this satellite

There are no fresh news available about this satellite. Check back as we update our databases every day.


Newsletter sign-up

Weekly statistics, charts and insights to help you stay on top of the space industry.